Flag for Germany Weather past 2 weeks in Rendsburg, Schleswig-Holstein, Germany

Now
63 °F

Passing clouds.


Feels Like: 63 °F
Forecast: 52 / 64 °F
Wind: 14 mph from Southwest

Location: Hohn

Current Time: Sep 2, 2015 at 3:27:03 PM

Latest Report: Sep 2, 2015 at 2:20 PM


Visibility: N/A

Pressure: 29.89 "Hg

Humidity: 77%

Dew point: 55 °F

Location of RendsburgLocation

Historic Weather in Rendsburg — Graph

°F

Rendsburg temperature yesterday

Maximum temperature yesterday: 66 °F (at 4:20 AM)
Minimum temperature yesterday: 54 °F (at 11:20 PM)
Average temperature yesterday: 63 °F

Past Weeks' High & Low Weather Summary

 TemperatureHumidityPressure
High77 °F (Aug 21, 2:20 PM)100% (Aug 18, 9:20 PM)30.30 "Hg (Aug 18, 9:20 PM)
Low52 °F (Aug 21, 1:20 AM)34% (Aug 22, 3:20 PM)29.59 "Hg (Aug 24, 7:20 PM)
Average63 °F81%29.97 "Hg
* Reported Aug 18 1:20 PM — Sep 2 1:20 PM, Rendsburg, Weather by CustomWeather, © 2015

Note: Actual official high and low records may vary slightly from our data, if they occured in-between our weather recording intervals... More about our weather records

Advertising

Rendsburg weather history for previous 24 hours

 ConditionsComfort  
Time TempWeatherWind HumidityBarometerVisibility
1:20 PM
Wed, Sep 2
61 °FPassing clouds.14 mph77%29.89 "HgN/A
12:20 PM59 °FScattered showers. Scattered clouds.16 mph88%29.89 "HgN/A
11:20 AM61 °FScattered clouds.14 mph77%29.86 "HgN/A
10:20 AM61 °FScattered clouds.15 mph77%29.86 "HgN/A
8:20 AM59 °FPassing clouds.12 mph82%29.83 "HgN/A
7:20 AM55 °FPassing clouds.6 mph82%29.83 "HgN/A
6:20 AM57 °FPassing clouds.7 mph82%29.83 "HgN/A
5:20 AM54 °FPassing clouds.8 mph88%29.83 "HgN/A
4:20 AM55 °FPassing clouds.8 mph88%29.83 "HgN/A
3:20 AM57 °FPassing clouds.8 mph82%29.83 "HgN/A
2:20 AM54 °FPassing clouds.7 mph88%29.86 "HgN/A
1:20 AM54 °FCool.6 mph88%29.86 "HgN/A
12:20 AM55 °FPassing clouds.6 mph82%29.86 "HgN/A
11:20 PM
Tue, Sep 1
54 °FPassing clouds.7 mph88%29.83 "HgN/A
10:20 PM55 °FPassing clouds.7 mph88%29.83 "HgN/A
9:20 PM57 °FPassing clouds.14 mph82%29.83 "HgN/A
8:20 PM59 °FBroken clouds.14 mph82%29.80 "HgN/A
7:20 PM61 °FBroken clouds.17 mph77%29.80 "HgN/A
6:20 PM63 °FBroken clouds.17 mph83%29.80 "HgN/A
5:20 PM63 °FDrizzle. Partly sunny.20 mph77%29.77 "HgN/A
4:20 PM63 °FDrizzle. Partly sunny.17 mph83%29.77 "HgN/A
3:20 PM63 °FDrizzle. Partly sunny.18 mph83%29.77 "HgN/A
Weather by CustomWeather, © 2015

See weather overviewHow to use our weather pages